Content
SEND FEEDBACK

Daily
Averages
Monthly
Summary
Canada

QUEBEC CITY, QUEBEC


Home > North America > Canada > Quebec
Elevation: 239 feet     Latitude: 46 48N     Longitude: 071 23W

WEATHER
 
SELECT A DAY
Number of Records: 192,085;   Date Range: 6/30/96 - 7/28/14
 
SHARE

PRINT THIS DATA

[ ← Previous Day ]
WEATHER ALMANAC - JANUARY 2, 2013
[ Next Day → ]
[ °C ]   °F
Weather ElementAverageHighLow
Temperature-3.4 °F3.2 °F (2:00 pm)-9.4 °F (8:00 am)
Dewpoint-14.4 °F-9 °F (1:00 am)-18.4 °F (8:00 am)
Humidity56.7 %65 % (1:00 am)37 % (1:00 pm)
Barometer29.99 in30.15 in (10:00 pm)29.86 in (1:00 am)
Wind Speed14.2 mph19.6 mph (5:00 pm)
Wind Gust23 mph (12:00 pm)
Weather ElementAverage
Visibility19.3 mi
Wind DirectionWSW (254.1 °)

Weather ElementTotal
Precipitation---
Heating Degree Days68.1 (Base 65)
Averaged from 29 records on January 2, 2013
WEATHER CONDITIONS BREAKOUT
WIND DIRECTION BREAKOUT
WEATHER BY HOUR - JANUARY 2, 2013
[ °C ]   °F
Local TimeTemperatureDewpointHumidityBarometerVisibilityWind DirectionWind SpeedGust SpeedPrecipitationEventsConditions
1:00 AM-3.0 °F-9.0 °F62 %29.86 inWSW (250°)11.5 mph
1:00 AM-4.0 °F-13.0 °F65 %29.87 in15.0 miWest (260°)16.1 mphClear
2:00 AM-4.0 °F-14.8 °F60 %29.88 in15.0 miWest (260°)13.8 mphPartly Cloudy
3:00 AM-4.0 °F-14.8 °F60 %29.89 in15.0 miWest (270°)16.1 mphPartly Cloudy
4:00 AM-5.8 °F-16.6 °F60 %29.88 in15.0 miWest (270°)13.8 mphClear
5:00 AM-5.8 °F-16.6 °F60 %29.88 in15.0 miWest (260°)16.1 mphClear
6:00 AM-7.6 °F-16.6 °F65 %29.90 in15.0 miWSW (250°)15.0 mphClear
7:00 AM-7.6 °F-16.6 °F65 %29.91 in15.0 miWSW (240°)11.5 mphPartly Cloudy
7:00 AM-7.0 °F-14.0 °F59 %29.90 inWSW (240°)6.9 mph
8:00 AM-9.4 °F-18.4 °F65 %29.93 in25.0 miWSW (250°)10.4 mphPartly Cloudy
9:00 AM-5.8 °F-18.4 °F55 %29.95 in25.0 miSW (220°)9.2 mphPartly Cloudy
10:00 AM-4.0 °F-14.0 °F48 %29.97 inWest (260°)9.2 mph
10:00 AM-4.0 °F-16.6 °F55 %29.97 in25.0 miWSW (250°)11.5 mphPartly Cloudy
11:00 AM-0.4 °F-16.6 °F46 %29.98 in25.0 miWest (280°)12.7 mph19.6 mphPartly Cloudy
12:00 PM-0.4 °F-14.8 °F51 %29.97 in25.0 miWest (280°)15.0 mph23.0 mphPartly Cloudy
1:00 PM2.0 °F-11.0 °F37 %29.98 inWest (280°)13.8 mph
1:00 PM1.4 °F-13.0 °F51 %29.98 in25.0 miWest (270°)17.3 mphPartly Cloudy
2:00 PM3.2 °F-13.0 °F47 %29.99 in25.0 miWest (270°)13.8 mphPartly Cloudy
3:00 PM1.4 °F-13.0 °F51 %30.01 in30.0 miWest (260°)16.1 mphPartly Cloudy
4:00 PM0.0 °F-10.0 °F47 %30.05 inWSW (250°)11.5 mph
4:00 PM-0.4 °F-13.0 °F55 %30.05 in30.0 miWSW (250°)18.4 mphPartly Cloudy
5:00 PM-2.2 °F-13.0 °F60 %30.08 in15.0 miWSW (250°)19.6 mphPartly Cloudy
6:00 PM-2.2 °F-14.8 °F55 %30.10 in15.0 miSW (230°)18.4 mphClear
7:00 PM-4.0 °F-14.8 °F60 %30.12 in15.0 miWSW (240°)18.4 mphClear
8:00 PM-4.0 °F-14.8 °F60 %30.13 in15.0 miWSW (250°)17.3 mphClear
9:00 PM-4.0 °F-14.8 °F60 %30.14 in15.0 miWSW (240°)17.3 mphClear
10:00 PM-5.0 °F-11.0 °F61 %30.14 inWSW (240°)11.5 mph
10:00 PM-5.8 °F-14.8 °F65 %30.15 in15.0 miWSW (250°)16.1 mphClear
11:00 PM-5.8 °F-16.6 °F60 %30.15 in15.0 miWSW (250°)13.8 mphClear
Hourly data recorded from CYQB, located miles away from Quebec City, Quebec







STORIES FROM OUR PARTNERS